This demonstration page uses our WeatherBlox Daily Observations layout. Learn more.

Left ArrowRight Arrow

Hourly Observations for March 3, 2021

Temp ( °F °C ) Dew Point ( °F °C ) Humidity (%) Winds ( mph kmh ) Pressure ( in mb ) Visibility ( mi km ) Precip ( " mm )
12:15 am 00:15 Clear 35 1.5 26 -3.1 72 72 NW 5 7 30.01 1016 10 16 N/A
12:35 am 00:35 Clear 34 1.1 27 -2.7 76 76 NW 6 9 30.01 1016 10 16 N/A
12:55 am 00:55 Clear 35 1.4 26 -3.1 72 72 NW 3 6 30.01 1016 10 16 N/A
1:15 am 01:15 Clear 34 1.3 27 -3 73 73 NNW 3 6 30.01 1016 10 16 N/A
1:35 am 01:35 Clear 33 0.8 27 -2.7 78 78 NNW 6 9 30.02 1016 10 16 N/A
1:55 am 01:55 Clear 34 1 27 -2.8 76 76 NW 5 7 30.02 1016 10 16 N/A
2:15 am 02:15 Clear 34 1.2 26 -3.1 73 73 NNW 5 7 30.01 1016 10 16 N/A
2:35 am 02:35 Clear 34 1 27 -2.9 75 75 N 6 9 30.02 1016 10 16 N/A
2:55 am 02:55 Clear 33 0.6 26 -3.3 75 75 N N/A 30.03 1017 10 16 N/A
3:15 am 03:15 Clear 33 0.3 26 -3.1 78 78 NNW 5 7 30.03 1017 10 16 N/A
3:35 am 03:35 Clear 32 undefined 26 -3.2 79 79 NNW 3 6 30.03 1017 10 16 N/A
3:55 am 03:55 Clear 32 -0.2 26 -3.3 80 80 NNW 3 6 30.04 1017 10 16 N/A
4:15 am 04:15 Clear 32 0.2 26 -3.1 79 79 N 6 9 30.02 1017 10 16 N/A
4:35 am 04:35 Clear 34 1 27 -3 75 75 N 3 6 30.03 1017 10 16 N/A
4:55 am 04:55 Clear 32 undefined 26 -3.5 78 78 N N/A 30.04 1017 10 16 N/A
5:15 am 05:15 Clear 34 1 26 -3.1 74 74 N 5 7 30.04 1017 10 16 N/A
5:35 am 05:35 Clear 33 0.8 27 -3 76 76 N 3 6 30.05 1018 10 16 N/A
5:55 am 05:55 Clear 33 0.7 26 -3.3 75 75 N 6 9 30.05 1018 10 16 N/A
6:15 am 06:15 Clear 33 0.3 26 -3.3 77 77 N 3 6 30.06 1018 10 16 N/A
6:35 am 06:35 Clear 34 0.9 26 -3.2 74 74 NNW 5 7 30.06 1018 10 16 N/A
6:55 am 06:55 Clear 31 -0.3 26 -3.5 79 79 N N/A 30.07 1018 10 16 N/A
7:15 am 07:15 Sunny 31 -0.7 26 -3.5 82 82 WNW 6 9 30.08 1019 10 16 N/A
7:35 am 07:35 Sunny 32 -0.1 26 -3.2 80 80 NW 5 7 30.08 1018 10 16 N/A
7:55 am 07:55 Sunny 32 0.2 27 -2.7 81 81 NNW 5 7 30.08 1019 10 16 N/A
8:15 am 08:15 Sunny 35 1.7 29 -1.6 79 79 NNW 5 7 30.08 1019 10 16 N/A
8:35 am 08:35 Sunny 38 3.1 31 -0.4 78 78 N N/A 30.08 1018 10 16 N/A
8:55 am 08:55 Sunny 41 4.9 33 0.4 73 73 N N/A 30.07 1018 10 16 N/A
9:15 am 09:15 Sunny 44 6.5 34 1.2 69 69 N N/A 30.05 1018 10 16 N/A
9:35 am 09:35 Sunny 47 8.3 33 0.5 58 58 N N/A 30.05 1018 10 16 N/A
9:55 am 09:55 Sunny 49 9.5 32 0.2 53 53 ESE 3 6 30.05 1018 10 16 N/A
10:15 am 10:15 Sunny 51 10.5 32 undefined 49 49 E 3 6 30.04 1017 10 16 N/A
10:35 am 10:35 Sunny 53 11.4 33 0.3 47 47 ESE 3 6 30.03 1017 10 16 N/A
10:55 am 10:55 Sunny 55 12.5 34 0.9 45 45 ESE 3 6 30.02 1017 10 16 N/A
11:15 am 11:15 Sunny 56 13.5 34 0.9 42 42 ESE 5 7 30.01 1016 10 16 N/A
11:35 am 11:35 Sunny 58 14.7 34 1 40 40 E 3 6 29.99 1016 10 16 N/A
12:15 pm 12:15 Sunny 60 15.8 31 -0.5 33 33 ESE 5 7 29.98 1015 10 16 N/A
12:35 pm 12:35 Sunny 62 16.5 31 -0.4 32 32 E 3 6 29.97 1015 10 16 N/A
12:55 pm 12:55 Sunny 63 17.2 31 -0.4 30 30 N N/A 29.96 1015 10 16 N/A
1:15 pm 13:15 Sunny 64 18 29 -1.8 26 26 N N/A 29.94 1014 10 16 N/A
1:35 pm 13:35 Sunny 64 18 25 -4 22 22 N N/A 29.93 1014 10 16 N/A
1:55 pm 13:55 Sunny 65 18.1 28 -2 26 26 ENE 3 6 29.93 1014 10 16 N/A
2:15 pm 14:15 Sunny 66 18.7 28 -2 25 25 ESE 5 7 29.93 1013 10 16 N/A
2:35 pm 14:35 Sunny 66 18.8 29 -1.9 25 25 N N/A 29.92 1013 10 16 N/A
2:55 pm 14:55 Sunny 66 19.1 29 -1.8 24 24 N N/A 29.91 1013 10 16 N/A
3:15 pm 15:15 Sunny 67 19.5 29 -1.9 24 24 ESE 3 6 29.91 1013 10 16 N/A
3:35 pm 15:35 Sunny 66 19.1 28 -2.5 23 23 N N/A 29.91 1013 10 16 N/A
3:55 pm 15:55 Sunny 67 19.5 27 -2.7 22 22 SSE 3 6 29.91 1013 10 16 N/A
4:15 pm 16:15 Sunny 67 19.3 27 -3 22 22 N N/A 29.91 1013 10 16 N/A
4:35 pm 16:35 Sunny 67 19.3 28 -2.4 23 23 ESE 3 6 29.91 1013 10 16 N/A
4:55 pm 16:55 Sunny 67 19.2 27 -2.7 23 23 S 3 6 29.91 1013 10 16 N/A
5:15 pm 17:15 Sunny 67 19.2 27 -2.9 22 22 N N/A 29.91 1013 10 16 N/A
5:35 pm 17:35 Sunny 65 18.5 31 -0.5 28 28 E 3 6 29.93 1014 10 16 N/A
5:55 pm 17:55 Sunny 62 16.7 37 2.6 39 39 E 5 7 29.94 1014 10 16 N/A
6:15 pm 18:15 Sunny 60 15.6 34 1.3 38 38 E 6 9 29.95 1014 10 16 N/A
6:35 pm 18:35 Clear 56 13.6 36 2.2 46 46 ESE 5 7 29.98 1015 10 16 N/A
6:55 pm 18:55 Clear 55 12.9 34 0.9 44 44 E 6 9 29.99 1015 10 16 N/A
7:15 pm 19:15 Clear 53 11.4 32 undefined 46 46 E 3 6 30.01 1016 10 16 N/A
7:35 pm 19:35 Clear 49 9.6 32 undefined 52 52 N N/A 30.03 1017 10 16 N/A
7:55 pm 19:55 Clear 50 10.2 32 undefined 49 49 ESE 3 6 30.03 1017 10 16 N/A
8:15 pm 20:15 Clear 48 8.9 32 0.1 54 54 ESE 7 11 30.04 1017 10 16 N/A
8:35 pm 20:35 Clear 45 7.3 32 0.1 61 61 ESE 9 15 30.06 1018 10 16 N/A
8:55 pm 20:55 Clear 47 8.4 32 undefined 56 56 ESE 8 13 30.06 1018 10 16 N/A
9:15 pm 21:15 Clear 45 7.3 32 -0.2 59 59 E 8 13 30.07 1018 10 16 N/A
9:35 pm 21:35 Clear 44 6.5 32 -0.1 63 63 ESE 9 15 30.07 1018 10 16 N/A
9:55 pm 21:55 Clear 42 5.7 32 undefined 67 67 ESE 9 15 30.08 1019 10 16 N/A
10:15 pm 22:15 Clear 40 4.5 31 -0.6 70 70 ESE 8 13 30.10 1019 10 16 N/A
10:35 pm 22:35 Clear 39 3.9 32 -0.1 75 75 ESE 8 13 30.11 1020 10 16 N/A
10:55 pm 22:55 Clear 41 4.8 31 -0.5 69 69 SE 5 7 30.10 1019 10 16 N/A
11:15 pm 23:15 Clear 43 6 30 -1 61 61 SSE 3 6 30.09 1019 10 16 N/A
11:35 pm 23:35 Clear 40 4.6 30 -1.2 66 66 SE 5 7 30.10 1019 10 16 N/A
11:55 pm 23:55 Clear 41 5.1 30 -1.1 65 65 SE 5 7 30.10 1019 10 16 N/A

Powered by AerisWeather